RH
64 64 63 66 72 84 84 87 99 87 77 96 100 98 97 87 62 58 48 45 45 49 52 60 57 53 47 41 46 57 48 67 95 82 53 51 54 66 66 92 86 85 85 69
65 65 65 68 72 84 99 92 97 86 88 95 95 91 90 76 70 67 52 49 44 40 48 57 50 50 43 48 50 55 51 88 95 92 68 52 62 56 54 65 78 92 94 67
66 66 67 74 75 76 92 93 97 92 90 90 80 97 91 92 79 57 49 49 44 45 48 50 55 59 58 46 50 64 56 68 88 93 83 74 97 80 65 76 99 83 77 66
63 66 70 73 77 79 91 96 90 82 96 89 81 87 82 87 82 58 49 54 48 48 55 55 56 50 59 53 63 57 64 98 89 77 66 68 75 74 70 90 94 99 80 80
62 64 73 75 76 79 90 98 96 88 67 68 88 74 91 72 58 58 55 56 47 47 53 58 52 54 53 62 59 64 67 98 99 94 72 71 81 73 71 68 77 96 95 94
63 66 73 72 73 76 96 94 84 97 76 63 59 65 57 60 62 63 60 53 54 62 68 60 61 59 53 55 62 68 86 100 98 93 66 75 89 78 83 79 82 86 97 82
61 62 63 64 67 72 94 94 98 97 82 63 52 52 54 58 66 69 63 56 65 70 60 66 69 68 70 65 65 64 87 99 99 98 92 95 64 57 64 75 75 64 64 65
61 60 60 61 64 66 81 93 98 98 89 56 51 51 58 56 60 70 69 70 69 67 73 82 77 87 92 81 73 74 73 88 98 99 94 66 56 62 73 89 79 60 71 73
62 61 60 59 61 63 69 92 92 97 99 62 58 52 55 69 66 74 76 78 78 78 90 87 90 90 72 87 88 76 78 78 94 88 95 88 64 63 64 77 89 65 73 82
63 62 60 59 60 60 69 88 84 97 98 73 78 61 64 59 64 92 87 86 87 83 93 89 98 92 67 77 84 93 94 95 97 97 96 81 52 58 64 90 76 63 59 77
64 63 62 60 59 59 69 76 84 90 96 86 71 69 75 73 73 88 86 89 87 93 91 96 95 97 80 80 64 76 80 87 93 93 98 94 56 61 77 67 66 59 61 84
65 63 61 60 60 58 60 76 66 76 96 89 76 70 69 73 75 75 80 82 78 84 93 96 93 92 92 78 80 58 70 63 70 73 72 50 54 56 59 59 65 64 66 79
62 64 62 63 58 59 61 82 75 88 94 85 93 82 65 64 69 71 83 87 76 81 89 94 94 98 90 95 81 76 62 53 74 68 56 59 58 56 60 63 67 66 66 73
62 61 60 61 61 62 59 84 77 84 94 99 87 71 78 76 76 75 76 78 81 88 92 96 90 97 83 86 80 78 71 65 70 70 61 66 62 64 63 61 65 69 63 62
65 66 64 65 65 65 68 77 72 70 93 99 96 78 82 82 79 74 75 73 84 95 99 98 91 89 89 79 75 79 66 73 78 77 59 62 70 65 62 63 66 63 65 66
64 65 69 66 66 64 82 84 90 77 78 99 100 87 89 83 83 78 78 80 81 93 96 95 91 79 87 97 81 60 53 53 51 56 59 61 63 61 59 63 64 63 65 63
66 67 67 67 69 82 87 81 97 90 89 99 100 100 92 84 82 89 93 91 96 97 97 98 93 89 90 97 90 59 47 53 57 65 60 70 65 69 62 62 63 60 59 57
67 68 67 73 75 75 86 75 74 85 97 96 100 99 97 91 93 97 93 97 97 99 96 95 97 92 96 97 81 72 62 58 61 68 63 65 63 64 66 61 60 63 60 56
69 67 71 86 88 82 94 78 78 93 98 100 99 100 100 95 92 96 97 95 99 95 98 97 97 94 98 86 76 72 64 72 77 73 67 66 68 69 66 62 62 60 61 59
68 81 80 91 84 76 80 95 98 99 98 98 99 82 97 90 92 97 95 97 95 100 91 90 99 97 77 68 64 71 71 72 75 83 90 93 90 83 66 64 56 56 57 58
82 85 89 85 77 94 96 100 100 100 100 97 94 82 90 87 90 89 94 97 100 100 94 90 98 90 75 66 61 62 65 68 69 65 67 74 72 71 66 62 55 55 55 55
86 88 88 91 99 100 100 100 100 100 97 98 96 94 89 90 94 92 92 100 99 98 88 96 97 91 80 62 60 61 72 69 70 64 64 67 63 62 64 63 57 54 53 51
87 86 97 95 99 99 98 98 99 100 100 100 100 99 88 96 96 96 91 99 97 90 98 88 94 93 73 68 70 74 73 68 65 66 66 66 69 68 60 58 54 52 51 48
86 90 97 92 90 86 97 98 99 100 100 100 99 99 97 91 99 94 94 94 92 90 95 95 99 92 81 73 75 77 78 74 71 74 76 79 76 74 68 62 60 61 51 53
90 89 95 90 93 98 100 100 100 100 99 100 100 100 90 100 100 92 98 95 89 81 94 100 95 91 86 79 77 78 76 74 79 80 81 79 78 74 77 73 63 52 54 55
96 90 91 89 97 92 98 96 99 99 92 99 100 100 100 100 99 97 89 89 90 97 100 98 95 88 86 82 79 81 77 69 69 69 72 73 71 70 70 63 57 55 54 55
87 96 89 96 93 91 96 77 77 73 94 100 100 100 94 99 99 95 87 90 99 96 98 98 92 91 87 83 86 87 82 75 70 71 69 70 68 64 59 62 62 62 56 54
Wind_Speed
23 24 26 27 29 30 5 3 3 3 3 1 3 2 3 3 2 4 3 2 11 12 14 10 8 10 3 12 11 12 7 2 3 11 9 13 10 9 13 4 6 5 6 15
23 25 27 29 30 24 3 2 3 1 3 1 3 4 4 2 3 4 2 3 4 15 11 6 9 9 5 4 6 10 8 3 2 2 3 7 7 10 10 15 9 15 11 14
23 25 27 27 31 26 3 1 3 2 1 2 1 2 1 4 5 5 7 7 4 6 10 5 8 6 2 5 5 6 9 3 6 4 3 2 4 7 9 9 6 11 22 30
24 25 26 27 30 26 2 1 2 4 2 2 8 4 3 6 4 4 4 2 2 5 6 4 4 8 7 5 4 4 2 3 4 7 13 12 14 17 17 16 18 15 24 25
23 24 24 26 29 27 2 3 4 5 2 11 12 6 1 1 5 5 2 2 5 3 4 6 8 6 7 6 8 5 3 3 3 6 16 16 16 16 18 18 18 19 22 26
21 22 22 24 26 20 3 3 2 4 1 4 2 3 4 3 1 4 7 3 4 7 8 6 5 5 2 3 7 9 5 2 2 5 10 13 6 5 6 9 11 11 12 19
21 21 21 23 24 21 3 2 3 3 2 4 2 3 2 5 7 6 4 4 5 3 3 1 1 1 2 4 5 3 6 4 2 5 9 3 3 7 5 6 12 13 10 15
18 19 20 19 21 23 7 2 4 3 4 3 1 4 3 6 4 5 6 5 3 2 2 2 2 2 2 6 8 9 6 4 2 3 2 9 4 4 2 1 5 6 8 9
15 17 18 19 18 19 8 1 2 3 3 2 10 5 4 2 4 4 3 3 4 2 1 1 1 1 3 4 3 4 9 8 2 2 4 4 3 3 5 3 4 2 4 8
14 14 16 17 17 17 8 2 4 3 4 3 7 2 1 2 2 3 3 3 1 2 1 1 1 2 3 3 6 5 3 4 9 7 3 8 6 4 6 2 5 4 4 4
15 15 15 14 15 15 8 4 3 3 4 8 7 9 6 2 2 3 4 3 1 2 1 1 1 2 3 3 3 6 7 6 4 4 4 8 1 1 2 3 3 4 4 3
16 16 16 14 12 13 9 3 4 3 3 6 4 11 14 9 4 1 3 1 4 2 3 2 1 2 3 5 3 0 4 6 5 7 7 7 4 7 1 3 2 5 2 6
16 15 16 15 15 11 9 3 3 2 3 6 4 5 5 6 4 3 2 1 3 3 2 2 1 4 2 3 4 5 5 5 2 2 4 5 4 6 5 4 3 2 2 8
16 17 17 17 16 11 8 3 3 2 3 4 3 2 2 3 1 1 1 4 4 5 2 2 2 2 3 3 5 3 2 2 4 5 9 3 5 5 4 4 3 5 5 6
17 18 19 17 17 13 6 5 5 6 3 4 5 8 3 1 2 5 4 3 4 2 2 2 3 3 2 4 5 7 4 6 4 5 3 2 2 4 2 5 5 6 8 9
19 20 19 19 18 13 1 4 3 6 6 4 3 2 4 2 1 3 4 3 1 2 2 2 2 4 3 4 5 7 10 9 8 4 4 3 5 5 5 6 6 7 7 9
20 21 21 19 13 3 3 1 2 7 4 4 3 2 3 4 4 2 2 1 2 2 1 3 2 3 5 3 8 9 12 8 8 0 5 2 4 3 7 8 8 9 8 8
21 22 20 11 3 4 3 3 5 1 3 3 3 1 3 3 3 3 3 3 2 3 2 1 3 2 3 6 10 8 11 13 8 4 4 3 7 8 8 7 9 9 9 9
23 19 12 1 0 1 2 6 6 3 3 3 3 3 2 2 2 3 1 1 3 3 3 3 2 3 6 6 7 7 6 3 2 5 6 6 6 8 8 8 8 10 9 9
18 5 1 2 2 6 3 2 2 2 3 4 3 2 2 2 2 2 3 2 0 0 0 1 2 4 10 10 9 7 7 2 7 4 2 1 2 8 10 8 7 9 10 9
3 3 1 2 6 2 1 2 2 2 3 3 3 2 3 1 1 1 2 2 1 1 1 1 3 3 3 7 7 7 7 7 6 6 5 9 8 9 9 8 10 11 10 9
5 5 4 1 1 1 3 3 2 3 1 2 1 2 3 2 2 1 1 2 1 3 2 1 3 2 7 10 11 10 8 8 8 6 4 7 7 8 8 7 10 10 11 13
2 3 3 1 2 3 3 3 1 1 3 3 3 1 1 1 0 2 1 2 3 1 1 3 4 4 10 11 10 10 9 7 6 5 3 3 7 8 8 11 9 12 12 11
1 2 3 3 3 3 1 2 2 2 2 3 2 0 1 1 2 1 2 1 1 2 2 5 2 7 10 10 9 9 9 8 6 6 5 4 7 9 8 9 11 13 12 10
2 2 4 4 2 0 1 1 1 1 3 2 1 1 0 1 2 1 2 1 3 4 4 2 5 7 9 10 10 10 9 6 5 3 3 5 6 8 8 9 10 11 12 12
2 4 3 1 1 2 1 1 1 2 1 1 1 1 2 3 3 3 6 3 6 2 1 2 5 8 9 9 9 8 8 6 4 2 2 3 5 8 7 7 9 10 11 12
3 3 3 1 1 1 1 1 1 1 1 0 2 3 3 1 3 4 4 4 2 3 3 2 5 6 9 8 7 7 6 6 4 2 2 3 5 7 9 10 6 8 9 10
Wind_Direction
352 354 351 347 341 338 358 354 93 220 231 81 260 28 303 323 34 336 14 119 138 147 166 162 184 197 268 178 160 181 197 148 221 215 222 213 199 196 211 221 233 230 283 278
354 356 353 349 346 351 302 42 85 61 312 21 22 348 350 282 23 340 43 74 28 146 167 140 221 98 90 112 164 167 171 175 255 284 161 218 215 229 233 230 270 245 267 248
355 358 355 351 353 2 26 354 69 54 331 248 129 329 133 111 326 40 63 78 68 121 130 328 116 99 151 174 196 58 159 185 208 216 184 67 231 235 247 257 253 266 245 279
356 360 357 358 359 358 357 320 143 169 176 79 65 292 32 70 27 17 33 75 92 138 146 100 127 141 126 168 156 153 151 230 272 263 277 279 272 272 266 248 252 257 282 281
357 1 0 3 5 353 56 8 355 327 8 143 194 187 20 171 89 16 80 161 139 26 107 54 166 154 182 167 172 184 184 268 21 278 254 246 257 258 254 260 264 263 267 271
0 2 7 5 8 8 351 339 311 291 290 250 276 33 72 86 84 61 24 73 131 88 46 54 40 20 22 80 163 184 156 146 360 262 327 313 266 235 231 270 254 254 271 281
354 358 3 8 8 13 327 343 286 293 219 269 114 86 107 104 47 87 52 20 59 61 20 166 155 355 303 271 162 131 157 147 167 291 314 276 122 168 199 252 268 272 276 295
355 354 356 6 9 7 355 335 343 337 300 198 155 150 121 142 109 82 95 63 50 335 301 260 227 163 215 224 198 198 171 172 226 268 265 268 293 133 234 204 298 357 309 319
351 349 353 355 7 8 353 15 318 312 307 199 325 163 150 135 165 162 102 64 359 324 313 200 263 234 283 135 135 180 198 217 231 322 313 285 100 134 128 147 265 315 335 338
341 346 345 353 357 3 354 285 3 289 298 283 346 274 185 183 116 87 149 154 88 318 191 172 221 277 335 223 185 169 176 188 221 223 257 278 278 135 148 316 283 350 331 332
330 333 332 338 352 356 4 300 35 341 301 286 294 320 324 13 132 174 124 144 210 165 127 117 169 261 284 292 156 171 173 182 188 167 224 265 217 210 230 255 313 339 332 78
326 324 321 322 334 342 355 323 327 313 231 283 319 279 270 262 316 340 151 25 133 96 114 196 336 253 280 324 280 23 216 201 170 187 214 245 238 210 228 86 298 301 97 114
316 319 312 323 317 331 334 297 309 302 267 275 250 231 245 194 236 321 166 196 134 115 45 107 260 262 336 260 254 316 238 246 236 351 287 252 16 36 67 55 345 6 92 131
314 316 315 309 308 310 309 278 274 241 265 270 272 349 242 50 241 36 14 119 74 102 118 157 216 245 210 262 297 263 259 26 226 260 283 304 69 78 46 60 52 86 89 108
311 312 309 308 307 307 294 265 235 224 227 310 292 312 174 336 266 189 182 188 133 134 156 181 214 228 254 248 263 254 213 208 195 229 169 162 98 93 38 106 96 90 96 81
312 309 310 303 295 284 357 296 67 203 179 269 267 344 138 151 122 178 179 206 168 141 173 212 222 226 164 261 266 228 238 230 234 263 83 84 102 83 86 108 107 97 100 106
312 315 313 310 296 217 186 287 51 8 91 246 263 204 131 143 131 118 125 101 160 174 207 219 221 232 185 243 255 251 287 320 340 57 101 194 169 140 112 104 99 106 99 92
316 314 314 312 123 119 213 267 197 185 262 257 265 77 136 208 150 147 167 166 161 193 239 194 214 215 202 256 252 263 259 274 259 194 126 98 113 107 108 111 119 110 111 109
317 311 292 66 342 107 51 1 142 159 274 291 258 165 162 166 146 97 148 202 193 160 218 223 130 199 230 251 276 290 356 315 340 77 110 141 145 136 141 149 139 130 131 121
316 290 215 52 45 321 306 151 204 201 218 222 263 271 108 206 138 175 155 195 329 290 38 85 234 257 273 284 295 323 327 189 133 111 318 41 147 161 170 173 149 142 140 135
332 339 31 354 328 258 194 238 227 189 237 213 242 329 117 43 171 132 31 146 68 250 243 264 276 273 30 355 344 331 317 313 231 205 214 183 168 171 167 165 149 141 139 134
302 291 278 255 312 241 237 206 195 219 216 11 351 51 41 91 349 78 310 116 55 252 351 254 254 307 340 348 334 327 317 301 280 196 188 178 163 164 155 146 141 140 125 127
234 256 326 232 161 257 271 166 183 129 0 345 336 56 24 122 311 72 114 138 223 71 228 248 228 358 344 337 332 329 332 335 40 39 29 149 138 138 145 135 131 126 130 136
281 272 257 210 199 238 26 9 20 21 304 334 312 278 97 26 73 159 164 211 61 257 250 241 352 341 335 336 338 345 345 354 24 48 39 97 121 122 121 127 134 137 144 143
259 240 248 216 65 360 93 125 311 321 304 316 276 4 111 32 83 173 102 161 237 226 225 341 331 331 334 334 340 347 349 351 357 12 90 101 110 126 124 137 143 143 137 135
241 238 252 194 272 197 270 198 193 215 320 301 298 234 165 204 173 168 208 206 223 210 5 287 317 329 330 330 333 332 331 343 5 8 105 131 125 132 125 110 125 135 141 135
235 237 245 307 27 160 85 355 39 43 41 347 310 216 194 74 165 218 207 221 68 351 304 288 314 318 327 327 324 331 334 337 5 34 57 110 112 127 132 133 128 118 120 122